DELTA 1 R/B

基本信息
目录编号:
14096
目录名称:
DELTA 1 R/B
国际标识:
1983-051B
轨道中心:
EARTH
物体状态:
在轨
发射日期:
1983-05-26 UTC
国别:
美国 (US)
轨道信息
数据来源: 国际轨道数据
星历时间: 2026-07-13T17:49:10+0800
半长轴: 8014.629km
偏心率: 0.1094616
轨道倾角: 72.296°
近地点辐角: 324.354°
升交点赤经: 207.141°
平近点角: 28.890°
近地点: 759.197km
远地点: 2513.787km
周期: 119.010分钟
每日圈数: 12.099785
详细信息
发射场:
AFWTR
轨道高度:
LEO
数据来源:
AOE Integration Group
参考系:
TEME
时间系统:
UTC
历元类型:
SGP4
2D轨道图
3D轨道图
轨道高度分析图
轨道倾角分析图
轨道综合分析图
查看轨道综合分析图